Skip Page Navigation
NASA JPL Caltech
NASA Logo - Jet Propulsion Laboratory + View the NASA Portal
+ Near-Earth Object (NEO) Program
Search JPL
JPL Home Earth Solar System Stars & Galaxies Technology
JPL Solar System Dynamics
BODIES ORBITS EPHEMERIDES TOOLS PHYSICAL DATA DISCOVERY FAQ SITE MAP
JPL Small-Body Database Browser
Search: [ help ]  
15334 (1993 UE)
Classification: Main-belt Asteroid          SPK-ID: 2015334
Ephemeris | Orbit Diagram | Orbital Elements | Physical Parameters | Discovery Circumstances ]

[ show orbit diagram ]
Orbital Elements at Epoch 2457400.5 (2016-Jan-13.0) TDB
Reference: JPL 16 (heliocentric ecliptic J2000)
 Element Value Uncertainty (1-sigma)   Units 
e .2126203217868002 6.8812e-08  
a 2.428679868795869 2.0462e-08 au
q 1.912293173575368 1.7351e-07 au
i 13.32455730701389 6.0551e-06 deg
node 117.1354321829689 3.3026e-05 deg
peri 225.6604599474601 3.7113e-05 deg
M 333.4623445512721 2.1035e-05 deg
tp 2457502.409316008298
(2016-Apr-23.90931601)
8.1247e-05 JED
period 1382.464017360874
3.78
1.7471e-05
4.783e-08
d
yr
n .2604046076275031 3.2909e-09 deg/d
Q 2.94506656401637 2.4812e-08 au
  Orbit Determination Parameters
   # obs. used (total)      824  
   data-arc span      9483 days (25.96 yr)  
   first obs. used      1989-07-05  
   last obs. used      2015-06-22  
   planetary ephem.      DE431  
   SB-pert. ephem.      SB431-BIG16  
   condition code      0  
   fit RMS      .5013  
   data source      ORB  
   producer      Otto Matic  
   solution date      2015-Jul-06 12:16:14  

Additional Information
 Earth MOID = .924297 au 
 Jupiter MOID = 2.4703 au 
 T_jup = 3.442 
[ show covariance matrix ]

Ephemeris | Orbit Diagram | Orbital Elements | Physical Parameters | Discovery Circumstances ]

Physical Parameter Table
Parameter Symbol Value Units Sigma Reference Notes
absolute magnitude H 13.8 mag n/a MPO337388  

15334 (1993 UE)          Discovered 1993-Oct-20 by McNaught, R. H. at Siding Spring
Reference: 20000621/Numbers.arcLast Updated: 2004-04-19
Ephemeris | Orbit Diagram | Orbital Elements | Physical Parameters | Discovery Circumstances ]
ABOUT SSD CREDITS/AWARDS PRIVACY/COPYRIGHT GLOSSARY LINKS
FirstGov 2016-Feb-10 00:38 UT
(server date/time)  
NASA Home Page
Site Manager:   Ryan S. Park
Webmaster  Alan B. Chamberlin